Flag for U.S.A. Weather past 2 weeks in Chattanooga, Tennessee, U.S.A.

Now
74 °F

Partly sunny.


Feels Like: 77 °F
Forecast: 46 / 73 °F
Wind: 5 mph from Southeast

Location: Lovell Field

Current Time: Oct 25, 2014 at 7:06:30 PM

Latest Report: Oct 25, 2014 at 5:53 PM


Visibility: 10 mi

Pressure: 30.00 "Hg

Humidity: 48%

Dew point: 53 °F

Location of ChattanoogaLocation

Historic Weather in Chattanooga — Graph

°F

Chattanooga temperature yesterday

Maximum temperature yesterday: 72 °F (at 4:53 PM)
Minimum temperature yesterday: 49 °F (at 6:53 AM)
Average temperature yesterday: 57 °F

Past Weeks' High & Low Weather Summary

 TemperatureHumidityPressure
High79 °F (Oct 11, 3:53 PM)100% (Oct 17, 4:53 AM)30.21 "Hg (Oct 17, 4:53 AM)
Low34 °F (Oct 17, 4:59 AM)35% (Oct 24, 4:53 PM)29.72 "Hg (Oct 14, 7:53 AM)
Average61 °F73%30.01 "Hg
* Reported Oct 10 5:53 PM — Oct 25 5:53 PM, Chattanooga, Weather by CustomWeather, © 2014

Note: Actual official high and low records may vary slightly from our data, if they occured in-between our weather recording intervals... More about our weather records

Advertising

Chattanooga weather history for previous 24 hours

 ConditionsComfort  
Time TempWeatherWind HumidityBarometerVisibility
5:53 PM
Oct 25
74 °FPartly sunny.5 mph48%30.00 "Hg10 mi
4:53 PM77 °FScattered clouds.No wind42%30.01 "Hg10 mi
3:53 PM74 °FPassing clouds.7 mph45%30.00 "Hg10 mi
2:53 PM73 °FPassing clouds.No wind44%30.03 "Hg10 mi
1:53 PM71 °FSunny.No wind47%30.06 "Hg10 mi
12:53 PM69 °FSunny.3 mph49%30.08 "Hg10 mi
11:53 AM66 °FSunny.No wind54%30.10 "Hg10 mi
10:53 AM60 °FSunny.No wind65%30.11 "Hg10 mi
10:00 AM55 °FSunny.No wind77%30.13 "Hg10 mi
8:53 AM47 °FClear.No wind86%30.11 "Hg10 mi
7:53 AM45 °FClear.No wind90%30.11 "Hg10 mi
6:53 AM45 °FClear.No wind90%30.10 "Hg10 mi
5:53 AM46 °FClear.No wind89%30.08 "Hg10 mi
4:53 AM45 °FClear.No wind93%30.06 "Hg10 mi
3:53 AM46 °FClear.No wind89%30.06 "Hg10 mi
2:53 AM46 °FClear.No wind89%30.07 "Hg10 mi
1:53 AM48 °FClear.No wind89%30.07 "Hg10 mi
12:53 AM48 °FClear.No wind89%30.08 "Hg10 mi
11:53 PM
Oct 24
50 °FPassing clouds.No wind83%30.08 "Hg10 mi
10:53 PM52 °FPassing clouds.No wind80%30.07 "Hg10 mi
9:53 PM54 °FPassing clouds.No wind77%30.07 "Hg10 mi
8:53 PM54 °FPassing clouds.5 mph74%30.06 "Hg10 mi
7:53 PM58 °FScattered clouds.5 mph72%30.05 "Hg10 mi
Weather by CustomWeather, © 2014

See weather overviewHow to use our weather pages